Location: Bebelsheim
(49.1659°N, 7.1624°E)
Time: 01:44:16
(UTC+00:00)

Daily predictions for brighter satellites

Satellite Brightness Start Highest point End
(mag) Time Altitude Azimuth Time Altitude Azimuth Time Altitude Azimuth
ATLAS 3B R/B 4.5 01:22:13 21° NNW 01:24:00 24° N 01:29:26 10° NE
CZ-2D R/B 4.4 01:24:02 10° NNE 01:25:31 19° NNE 01:25:31 19° NNE
USA 267 4.2 01:44:11 10° ENE 01:48:35 40° E 01:48:35 40° E
Resurs 1-4 Rocket 4.2 01:55:41 10° N 01:57:29 21° N 01:57:29 21° N
CENTAUR R/B 3.9 01:54:27 10° NW 02:01:53 47° NNE 02:10:13 10° ESE
Cosmos 2360 Rocket 4.1 02:10:09 10° NNW 02:22:23 - SE 02:12:08 22° NNW
ADEOS II 3.7 02:14:57 10° N 02:17:29 29° N 02:17:29 29° N
IDEFIX/ARIANE 42P 3.8 02:16:23 10° NNE 02:19:41 38° NE 02:19:41 38° NE
USA 234 3.7 02:19:35 10° ESE 02:24:09 49° SE 02:24:09 49° SE
ADEOS Rocket 4.2 02:30:08 28° NNW 02:30:08 28° NNW 02:32:38 10° NNW
Cosmos 1553 Rocket 4.2 02:32:42 64° E 02:32:44 64° E 02:38:53 10° NNE
Lacrosse 5 3.4 02:40:09 30° ESE 02:40:09 30° ESE 02:42:45 10° ESE
NOSS 3-1 (A) 4.5 02:39:30 35° NNW 02:39:30 35° NNW 02:45:40 10° NE
Cosmos 2082 Rocket 3.6 02:42:36 28° NNW 02:42:36 28° NNW 02:46:14 10° NNE
Cosmos 2333 Rocket 3.4 02:38:46 10° NNW 02:44:15 41° NE 02:49:41 10° ESE
MSX 4.0 02:38:45 10° NNE 02:44:10 70° ENE 02:44:10 70° ENE
Cosmos 2221 3.9 02:53:28 37° NE 02:53:28 37° NE 02:56:17 10° NNE
Cosmos 2219 Rocket 3.2 02:53:49 10° NNW 02:59:14 44° NE 03:04:40 10° SE
Cosmos 1269 Rocket 4.4 03:00:32 56° N 03:00:32 56° N 03:04:49 10° NNE
CZ-2C R/B 3.4 02:56:39 10° NNE 03:01:07 40° E 03:02:02 36° SE
CZ-2D R/B 4.2 03:05:28 10° NNW 03:06:50 14° NNW 03:06:50 14° NNW
Cosmos 1606 4.1 03:12:57 37° E 03:13:04 37° E 03:16:42 10° NNE
USA 238 DEB 3.8 03:06:13 10° NW 03:13:28 89° SW 03:21:02 10° SE
USA 238 3.8 03:06:20 10° NW 03:13:35 89° SW 03:21:09 10° SE
GEOS 3 Rocket 4.0 03:08:32 10° NE 03:13:38 50° NW 03:13:38 50° NW
COSMOS 2428 3.5 03:10:04 10° NNW 03:15:38 50° NE 03:21:11 10° SE
ATLAS 3B R/B 4.2 03:10:35 10° NW 03:16:46 34° NNE 03:23:11 10° E
CZ-4B R/B 4.2 03:12:49 10° N 03:16:36 40° NNW 03:16:36 40° NNW
ATLAS 5 CENTAUR R/B 3.8 03:19:17 13° SE 03:21:05 16° ESE 03:23:46 10° ENE
S3M 3.8 03:21:13 54° SSW 03:22:43 82° W 03:28:57 10° N
SeaSat 1 4.2 03:19:43 10° ESE 03:24:00 31° NE 03:28:18 10° NNW
ARIANE 5 R/B 2.9 03:19:10 10° N 03:23:22 49° NW 03:23:22 49° NW
Cosmos 1745 Rocket 3.9 03:18:43 10° NNW 03:24:58 66° W 03:26:32 49° SSW
CZ-4C R/B 3.9 03:30:56 42° E 03:31:27 46° ENE 03:34:48 10° N
USA 267 3.3 03:27:15 10° NE 03:33:45 68° NNW 03:35:57 43° W
Cosmos 2322 3.6 03:30:37 10° NNW 03:36:21 87° WSW 03:42:01 10° SSE
Cosmos 1709 Rocket 3.9 03:30:21 10° N 03:36:46 87° W 03:43:10 10° S
Meteor 1-4 Rocket 4.1 03:42:49 26° NNW 03:42:49 26° NNW 03:44:37 10° N
NOSS 3-2 (A) 4.0 03:34:44 10° NW 03:42:06 59° WSW 03:50:24 10° SSE
H-2A R/B 3.0 03:38:30 10° SE 03:42:32 47° ENE 03:46:32 10° N
Spot 4 Rocket 4.1 03:40:47 10° N 03:45:49 54° WNW 03:46:28 50° W
Cosmos 1842 Rocket 4.4 03:48:19 34° NW 03:48:19 34° NW 03:51:22 10° N
COSMOS 2487 2.4 03:50:12 72° NNE 03:50:12 72° NNE 03:53:20 10° NNE
Cosmos 1633 Rocket 4.3 03:45:55 10° N 03:50:08 42° ENE 03:54:17 10° SE
Cosmos 2344 3.5 03:46:42 34° SW 03:50:19 81° NW 03:58:30 10° NE
Cosmos 1833 4.1 03:48:29 43° SW 03:50:21 73° WNW 03:56:01 10° NNE
CENTAUR R/B 3.1 03:45:11 10° NW 03:53:13 71° SW 04:02:02 10° SSE
Cosmos 2251 Rocket 3.4 03:53:53 33° SSW 03:56:21 82° WNW 04:01:47 10° NNE
Cosmos 614 Rocket 4.1 03:54:14 20° S 03:57:54 73° ESE 04:03:08 10° NNE
Meteor 1-20 Rocket 4.4 03:52:24 10° N 03:58:08 75° ENE 04:03:55 10° SSE
ADEOS II 4.1 03:56:30 10° NNW 03:58:26 13° NW 03:58:26 13° NW
Cosmos 2360 Rocket 4.3 04:04:23 10° SSW 04:04:23 10° SSW 04:04:24 10° SSW
ISS -3.9 04:00:41 81° SSW 04:00:41 81° SSW 04:04:00 10° ESE
IDEFIX/ARIANE 42P 3.9 03:56:44 10° N 04:00:30 23° NW 04:00:30 23° NW
Cosmos 1933 3.8 03:58:10 10° S 04:02:08 62° E 04:06:09 10° NNE
Meteor 2-17 Rocket 4.3 03:56:07 10° NNW 04:02:09 68° W 04:08:07 10° S
ALOS 2.3 03:57:44 10° NNE 04:02:26 79° ESE 04:07:03 10° S
PAYLOAD A 4.2 03:57:23 10° N 04:02:35 57° WNW 04:05:04 30° SW
CZ-2C R/B 3.4 04:01:03 10° N 04:04:14 37° NW 04:04:14 37° NW
Cosmos 2237 Rocket 3.2 04:01:30 10° NNW 04:07:02 48° NE 04:12:29 10° SE
Cosmos 2333 4.4 04:01:46 10° NW 04:07:19 48° WSW 04:12:49 10° S
USA 234 3.9 04:03:58 10° S 04:09:42 32° SW 04:11:35 27° W
Meteor 1-31 Rocket 4.2 04:06:31 10° NNE 04:10:10 38° E 04:13:46 10° SSE
Cosmos 407 Rocket 4.1 04:07:57 10° S 04:13:00 57° ESE 04:18:02 10° NNE
CZ-4C R/B 2.4 04:10:13 17° SSW 04:13:58 63° SE 04:19:53 10° NE
PSLV R/B 3.6 04:10:45 10° N 04:15:04 57° WNW 04:17:21 26° SW
USA 276 2.1 04:16:02 53° SW 04:16:37 72° SSE 04:19:49 10° ENE
Lacrosse 5 2.6 04:19:24 29° WSW 04:20:24 32° SW 04:24:51 10° SSE
NOSS 3-4 (A) 3.7 04:16:30 11° SSW 04:22:01 65° SE 04:28:17 10° NE
NOSS 3-4 (C) 3.7 04:16:33 11° SSW 04:22:08 64° SE 04:28:22 10° NE
Cosmos 192 4.3 04:18:15 10° NNW 04:23:10 66° WSW 04:28:05 10° S
NOSS 3-2 (C) 4.2 04:16:48 10° NW 04:24:06 53° WSW 04:32:18 10° SSE
Cosmos 1328 Rocket 4.1 04:20:54 10° S 04:25:07 58° E 04:29:22 10° NNE
Cosmos 2082 Rocket 4.4 04:25:50 10° NW 04:27:11 11° NNW 04:28:32 10° N
Cosmos 2227 Rocket 4.4 04:23:10 10° SSE 04:27:45 26° ESE 04:32:20 10° NE
Cosmos 2333 Rocket 2.6 04:23:10 10° NW 04:28:31 41° WSW 04:33:52 10° S
SL-16 R/B 4.0 04:24:47 10° NNW 04:29:51 31° NE 04:34:52 10° ESE
Cosmos 2221 4.2 04:30:18 17° WNW 04:30:18 17° WNW 04:32:54 10° NNW
Cosmos 1484 Rocket 2.6 04:28:23 10° N 04:32:03 59° WNW 04:35:27 12° SSW
Cosmos 1805 Rocket 4.3 04:28:56 10° NNW 04:32:52 30° W 04:36:45 10° SSW
Cosmos 1437 Rocket 2.9 04:30:41 10° S 04:34:44 79° E 04:38:46 10° NNE
Cosmos 1470 Rocket 3.9 04:30:34 10° N 04:34:55 69° ENE 04:39:13 10° SSE
Landsat 5 4.1 04:33:38 10° SSW 04:36:59 28° W 04:40:27 10° NW
ATLAS 2AS CENTAUR R/B 3.5 04:29:35 10° SSW 04:37:22 63° ESE 04:45:01 10° NE
CZ-2C R/B 3.2 04:35:10 10° N 04:39:13 28° WNW 04:41:25 20° WSW
CZ-4B R/B 1.3 04:37:59 10° SSE 04:41:03 74° ENE 04:44:05 10° N
Cosmos 2315 Rocket 4.3 04:35:13 10° SW 04:41:04 43° WNW 04:46:57 10° N
COSMO-SKYMED 1 2.5 04:37:41 10° SSE 04:42:02 87° WSW 04:46:24 10° NNW
Cosmos 2297 Rocket 3.6 04:37:28 10° S 04:42:42 41° ESE 04:47:58 10° NE
Cosmos 2219 Rocket 2.7 04:37:59 10° NW 04:43:07 36° WSW 04:48:14 10° S
Cosmos 1782 2.7 04:40:44 10° S 04:44:41 86° WNW 04:48:40 10° N
CBERS 1 LM4 rocket 4.4 04:42:23 10° N 04:47:05 55° WNW 04:51:41 10° SW
Cosmos 1606 4.1 04:47:58 19° W 04:48:55 20° WNW 04:51:53 10° NNW
Sich 1 4.0 04:45:45 10° NNW 04:49:28 27° W 04:53:09 10° SW
Cosmos 1140 Rocket 3.4 04:45:10 10° SSW 04:50:23 84° WNW 04:55:36 10° NNE
Cosmos 1500 3.2 04:48:09 10° N 04:51:59 82° E 04:55:47 10° SSE
Cosmos 1980 3.7 04:46:20 10° NNW 04:52:02 83° WSW 04:57:42 10° SSE
METEOR-M 4.3 04:47:51 10° N 04:53:04 54° WNW 04:58:14 10° SW
Meteor 1-26 Rocket 4.3 04:47:46 10° SSW 04:53:31 76° WNW 04:59:29 10° N
Cosmos 1933 Rocket 3.8 04:50:52 10° N 04:55:20 75° ENE 04:59:49 10° SSE
ERS-2 3.3 04:51:58 10° SE 04:55:27 46° ENE 04:58:58 10° N
Cosmos 1666 Rocket 4.1 04:52:43 10° NNW 04:56:43 35° W 05:00:44 10° SSW
Cosmos 2074 Rocket 4.0 04:51:29 10° NNW 04:57:32 57° W 05:03:35 10° S
COSMOS 2428 3.4 04:54:43 10° NW 04:59:43 32° WSW 05:04:43 10° SSW
MOS 1 Rocket 3.3 04:56:55 10° S 05:01:15 53° W 05:05:51 10° NNW
SeaSat 1 2.6 04:56:29 10° SSE 05:01:18 54° WSW 05:06:10 10° NW
BREEZE M DEB (TANK) 2.8 04:59:34 15° W 05:01:52 61° SSW 05:09:31 10° ESE
Cosmos 1023 Rocket 4.5 04:56:58 10° SSW 05:02:09 66° WNW 05:07:17 10° NNE
BREEZE-M DEB (TANK) 2.3 05:00:37 13° W 05:04:21 81° N 05:06:39 10° E
YAOGAN 6 3.6 05:01:23 10° NNE 05:04:48 48° E 05:08:11 10° S
ATLAS 5 CENTAUR R/B 1.5 05:01:00 10° SW 05:04:59 68° NW 05:09:35 10° NE
Cosmos 2154 Rocket 4.0 04:58:50 10° NNW 05:05:04 75° W 05:11:19 10° S
CZ-4B R/B 3.9 05:04:16 10° N 05:07:50 46° WNW 05:11:20 10° SW
ATLAS 3B R/B 2.9 05:01:19 10° NW 05:08:18 89° NE 05:15:37 10° SE
ADEOS 3.6 05:03:13 10° N 05:08:22 59° WNW 05:13:29 10° SSW
USA 267 3.9 05:10:07 10° ENE 05:16:17 46° N 05:22:26 10° WNW
H-2A R/B 3.3 05:15:42 10° SW 05:18:45 19° W 05:21:47 10° NW
Cosmos 1151 Rocket 3.7 05:16:40 10° SW 05:20:34 33° WNW 05:24:29 10° N
Cosmos 909 Rocket 4.4 05:16:16 10° WSW 05:22:28 47° NW 05:28:37 10° NNE
Cosmos 2219 3.5 05:16:54 10° SSW 05:22:32 76° ESE 05:28:11 10° NNE
NOSS 0 Rocket 4.4 05:18:02 10° NW 05:23:41 38° WSW 05:29:19 10° S
Cosmos 2184 Rocket 4.5 05:18:33 10° NNW 05:24:20 39° W 05:30:08 10° SSW
Cosmos 1763 Rocket 3.6 05:19:14 10° NNW 05:24:30 85° ENE 05:29:40 10° SSE
SL-8 Rocket 4.5 05:19:02 10° N 05:25:11 69° ENE 05:31:19 10° SSE
Cosmos 1633 Rocket 4.2 05:24:16 10° NW 05:27:38 22° W 05:31:00 10° SW
SKYMED 2 4.4 05:26:28 10° SSW 05:30:16 29° W 05:34:06 10° NNW
